Time,TemperatureF,DewpointF,PressureIn,WindDirection,WindDirectionDegrees,WindSpeedMPH,WindSpeedGustMPH,Humidity,HourlyPrecipIn,Conditions,Clouds,dailyrainin,SoftwareType,DateUTC
2013-09-20 00:00:00,75.3,42.6,29.64,NNE,32,2.0,7.0,31,0.00,,---,0.00,VWS V15.00,2013-09-20 07:00:00,
2013-09-20 00:02:00,75.3,42.6,29.64,NE,39,2.0,4.0,31,0.00,,---,0.00,VWS V14.01,2013-09-20 07:02:00,
2013-09-20 00:07:00,75.6,42.0,29.64,NNE,32,2.0,5.0,30,0.00,,---,0.00,VWS V14.01,2013-09-20 07:07:00,
2013-09-20 00:12:00,75.7,41.2,29.64,NE,48,2.0,5.0,29,0.00,,---,0.00,VWS V14.01,2013-09-20 07:12:00,
2013-09-20 00:17:00,75.5,41.9,29.64,NE,40,1.0,5.0,30,0.00,,---,0.00,VWS V14.01,2013-09-20 07:17:00,
2013-09-20 00:22:00,75.2,41.7,29.64,NE,40,2.0,5.0,30,0.00,,---,0.00,VWS V14.01,2013-09-20 07:22:00,
2013-09-20 00:27:00,74.8,42.2,29.64,NE,39,3.0,5.0,31,0.00,,---,0.00,VWS V14.01,2013-09-20 07:27:00,
2013-09-20 00:30:00,74.5,41.9,29.64,NE,47,3.0,5.0,31,0.00,,---,0.00,VWS V15.00,2013-09-20 07:30:00,
2013-09-20 00:32:00,74.2,41.7,29.64,NE,40,3.0,4.0,31,0.00,,---,0.00,VWS V14.01,2013-09-20 07:32:00,
2013-09-20 00:37:00,73.7,41.2,29.64,NE,43,2.0,4.0,31,0.00,,---,0.00,VWS V14.01,2013-09-20 07:37:00,
2013-09-20 00:42:00,73.5,40.2,29.64,NNE,23,3.0,6.0,30,0.00,,---,0.00,VWS V14.01,2013-09-20 07:42:00,
2013-09-20 00:47:00,73.4,40.1,29.64,NNE,27,2.0,6.0,30,0.00,,---,0.00,VWS V14.01,2013-09-20 07:47:00,
2013-09-20 00:52:00,73.5,40.2,29.64,NE,44,2.0,6.0,30,0.00,,---,0.00,VWS V14.01,2013-09-20 07:52:00,
2013-09-20 00:57:00,73.8,39.6,29.64,NE,39,3.0,6.0,29,0.00,,---,0.00,VWS V14.01,2013-09-20 07:57:00,
2013-09-20 01:00:00,73.9,38.8,29.64,North,11,1.0,6.0,28,0.00,,---,0.00,VWS V15.00,2013-09-20 08:00:00,
2013-09-20 01:02:00,73.9,38.8,29.64,NNE,20,2.0,4.0,28,0.00,,---,0.00,VWS V14.01,2013-09-20 08:02:00,
2013-09-20 01:07:00,74.2,39.0,29.64,NNE,27,2.0,4.0,28,0.00,,---,0.00,VWS V14.01,2013-09-20 08:07:00,
2013-09-20 01:12:00,74.5,39.3,29.64,NNE,33,2.0,4.0,28,0.00,,---,0.00,VWS V14.01,2013-09-20 08:12:00,
2013-09-20 01:18:00,74.5,39.3,29.64,North,360,0.0,4.0,28,0.00,,---,0.00,VWS V14.01,2013-09-20 08:18:00,
2013-09-20 01:23:00,74.2,39.0,29.65,SSE,165,0.0,4.0,28,0.00,,---,0.00,VWS V14.01,2013-09-20 08:23:00,
2013-09-20 01:28:00,73.4,39.2,29.64,South,188,0.0,4.0,29,0.00,,---,0.00,VWS V14.01,2013-09-20 08:28:00,
2013-09-20 01:30:00,73.2,39.1,29.65,South,188,0.0,4.0,29,0.00,,---,0.00,VWS V15.00,2013-09-20 08:30:00,
2013-09-20 01:33:00,73.0,39.8,29.65,South,188,0.0,0.0,30,0.00,,---,0.00,VWS V14.01,2013-09-20 08:33:00,
2013-09-20 01:38:00,72.8,39.6,29.64,South,188,0.0,0.0,30,0.00,,---,0.00,VWS V14.01,2013-09-20 08:38:00,
2013-09-20 01:43:00,72.5,40.2,29.65,South,185,0.0,0.0,31,0.00,,---,0.00,VWS V14.01,2013-09-20 08:43:00,
2013-09-20 01:48:00,72.3,41.6,29.65,ENE,65,1.0,1.0,33,0.00,,---,0.00,VWS V14.01,2013-09-20 08:48:00,
2013-09-20 01:53:00,71.7,41.9,29.64,WNW,282,0.0,1.0,34,0.00,,---,0.00,VWS V14.01,2013-09-20 08:53:00,
2013-09-20 01:58:00,71.1,42.1,29.64,WNW,283,0.0,1.0,35,0.00,,---,0.00,VWS V14.01,2013-09-20 08:58:00,
2013-09-20 02:00:00,71.0,42.7,29.64,WNW,284,0.0,1.0,36,0.00,,---,0.00,VWS V15.00,2013-09-20 09:00:00,
2013-09-20 02:03:00,70.8,42.5,29.65,WNW,284,0.0,0.0,36,0.00,,---,0.00,VWS V14.01,2013-09-20 09:03:00,
2013-09-20 02:08:00,70.6,42.4,29.64,WNW,287,0.0,0.0,36,0.00,,---,0.00,VWS V14.01,2013-09-20 09:08:00,
2013-09-20 02:13:00,70.7,42.5,29.64,WNW,290,0.0,0.0,36,0.00,,---,0.00,VWS V14.01,2013-09-20 09:13:00,
2013-09-20 02:18:00,70.6,42.4,29.64,WNW,290,0.0,0.0,36,0.00,,---,0.00,VWS V14.01,2013-09-20 09:18:00,
2013-09-20 02:23:00,70.6,42.4,29.64,NW,321,0.0,1.0,36,0.00,,---,0.00,VWS V14.01,2013-09-20 09:23:00,
2013-09-20 02:28:00,70.8,42.5,29.64,NE,41,1.0,1.0,36,0.00,,---,0.00,VWS V14.01,2013-09-20 09:28:00,
2013-09-20 02:30:00,70.9,42.6,29.64,NNE,24,1.0,2.0,36,0.00,,---,0.00,VWS V15.00,2013-09-20 09:30:00,
2013-09-20 02:33:00,71.0,42.7,29.64,NE,39,0.0,2.0,36,0.00,,---,0.00,VWS V14.01,2013-09-20 09:33:00,
2013-09-20 02:38:00,71.1,42.8,29.64,NE,39,2.0,2.0,36,0.00,,---,0.00,VWS V14.01,2013-09-20 09:38:00,
2013-09-20 02:44:00,71.0,42.7,29.64,NNE,31,1.0,2.0,36,0.00,,---,0.00,VWS V14.01,2013-09-20 09:44:00,
2013-09-20 02:49:00,71.0,42.7,29.64,NNE,16,2.0,3.0,36,0.00,,---,0.00,VWS V14.01,2013-09-20 09:49:00,
2013-09-20 02:54:00,71.0,42.7,29.64,NNE,23,1.0,3.0,36,0.00,,---,0.00,VWS V14.01,2013-09-20 09:54:00,
2013-09-20 02:59:00,70.9,42.6,29.64,NNE,12,0.0,3.0,36,0.00,,---,0.00,VWS V14.01,2013-09-20 09:59:00,
2013-09-20 03:00:00,70.8,42.5,29.64,NNE,12,0.0,3.0,36,0.00,,---,0.00,VWS V15.00,2013-09-20 10:00:00,
2013-09-20 03:04:00,70.6,42.4,29.64,NNE,12,0.0,0.0,36,0.00,,---,0.00,VWS V14.01,2013-09-20 10:04:00,
2013-09-20 03:09:00,70.2,42.7,29.64,NNE,23,1.0,1.0,37,0.00,,---,0.00,VWS V14.01,2013-09-20 10:09:00,
2013-09-20 03:14:00,70.2,42.7,29.64,NE,43,0.0,2.0,37,0.00,,---,0.00,VWS V14.01,2013-09-20 10:14:00,
2013-09-20 03:19:00,70.0,42.6,29.65,NE,43,0.0,2.0,37,0.00,,---,0.00,VWS V14.01,2013-09-20 10:19:00,
2013-09-20 03:24:00,70.1,41.9,29.65,NE,40,0.0,2.0,36,0.00,,---,0.00,VWS V14.01,2013-09-20 10:24:00,
2013-09-20 03:29:00,70.1,42.7,29.65,NNE,33,0.0,2.0,37,0.00,,---,0.00,VWS V14.01,2013-09-20 10:29:00,
2013-09-20 03:30:00,70.1,42.7,29.65,NE,34,0.0,2.0,37,0.00,,---,0.00,VWS V15.00,2013-09-20 10:30:00,
2013-09-20 03:34:00,70.1,41.9,29.65,NNE,30,1.0,2.0,36,0.00,,---,0.00,VWS V14.01,2013-09-20 10:34:00,
2013-09-20 03:39:00,70.6,42.4,29.65,NNE,27,0.0,2.0,36,0.00,,---,0.00,VWS V14.01,2013-09-20 10:39:00,
2013-09-20 03:44:00,70.5,42.3,29.65,NNE,27,0.0,2.0,36,0.00,,---,0.00,VWS V14.01,2013-09-20 10:44:00,
2013-09-20 03:49:00,70.4,41.5,29.65,NNE,27,0.0,2.0,35,0.00,,---,0.00,VWS V14.01,2013-09-20 10:49:00,
2013-09-20 03:54:00,70.6,41.7,29.65,NNE,27,0.0,2.0,35,0.00,,---,0.00,VWS V14.01,2013-09-20 10:54:00,
2013-09-20 03:59:00,70.7,41.7,29.65,NNE,27,0.0,2.0,35,0.00,,---,0.00,VWS V14.01,2013-09-20 10:59:00,
2013-09-20 04:00:00,70.7,41.7,29.65,NNE,27,0.0,2.0,35,0.00,,---,0.00,VWS V15.00,2013-09-20 11:00:00,
2013-09-20 04:04:00,70.6,41.7,29.65,NNE,27,1.0,1.0,35,0.00,,---,0.00,VWS V14.01,2013-09-20 11:04:00,
2013-09-20 04:10:00,70.6,41.7,29.65,NNE,33,1.0,2.0,35,0.00,,---,0.00,VWS V14.01,2013-09-20 11:10:00,
2013-09-20 04:15:00,70.4,42.2,29.65,NE,37,1.0,2.0,36,0.00,,---,0.00,VWS V14.01,2013-09-20 11:15:00,
2013-09-20 04:20:00,70.0,41.8,29.65,NE,40,1.0,3.0,36,0.00,,---,0.00,VWS V14.01,2013-09-20 11:20:00,
2013-09-20 04:25:00,69.3,42.6,29.65,NE,41,0.0,3.0,38,0.00,,---,0.00,VWS V14.01,2013-09-20 11:25:00,
2013-09-20 04:30:00,68.8,42.9,29.65,NE,41,0.0,3.0,39,0.00,,---,0.00,VWS V14.01,2013-09-20 11:30:00,
2013-09-20 04:35:00,68.5,43.2,29.65,NE,52,2.0,3.0,40,0.00,,---,0.00,VWS V14.01,2013-09-20 11:35:00,
2013-09-20 04:40:00,68.3,43.1,29.65,NE,41,2.0,4.0,40,0.00,,---,0.00,VWS V14.01,2013-09-20 11:40:00,
2013-09-20 04:45:00,68.1,42.9,29.66,NNE,25,1.0,4.0,40,0.00,,---,0.00,VWS V14.01,2013-09-20 11:45:00,
2013-09-20 04:50:00,67.9,43.4,29.66,NE,56,1.0,4.0,41,0.00,,---,0.00,VWS V14.01,2013-09-20 11:50:00,
2013-09-20 04:55:00,67.6,43.1,29.66,NE,48,2.0,4.0,41,0.00,,---,0.00,VWS V14.01,2013-09-20 11:55:00,
2013-09-20 05:00:00,67.4,43.5,29.66,NE,50,3.0,3.0,42,0.00,,---,0.00,VWS V14.01,2013-09-20 12:00:00,
2013-09-20 05:05:00,67.2,43.4,29.66,NE,34,1.0,3.0,42,0.00,,---,0.00,VWS V14.01,2013-09-20 12:05:00,
2013-09-20 05:10:00,67.3,43.5,29.66,NE,51,2.0,3.0,42,0.00,,---,0.00,VWS V14.01,2013-09-20 12:10:00,
2013-09-20 05:15:00,67.2,43.4,29.66,NE,43,2.0,3.0,42,0.00,,---,0.00,VWS V14.01,2013-09-20 12:15:00,
2013-09-20 05:20:00,67.5,43.0,29.66,North,9,3.0,4.0,41,0.00,,---,0.00,VWS V14.01,2013-09-20 12:20:00,
2013-09-20 05:25:00,68.0,42.8,29.66,NE,34,5.0,5.0,40,0.00,,---,0.00,VWS V14.01,2013-09-20 12:25:00,
2013-09-20 05:30:00,68.8,42.9,29.67,NE,36,2.0,5.0,39,0.00,,---,0.00,VWS V14.01,2013-09-20 12:30:00,
2013-09-20 05:36:00,69.4,42.7,29.66,NNE,21,3.0,5.0,38,0.00,,---,0.00,VWS V14.01,2013-09-20 12:36:00,
2013-09-20 05:41:00,69.8,43.1,29.66,NE,49,3.0,6.0,38,0.00,,---,0.00,VWS V14.01,2013-09-20 12:41:00,
2013-09-20 05:46:00,69.9,42.5,29.67,NE,53,3.0,6.0,37,0.00,,---,0.00,VWS V14.01,2013-09-20 12:46:00,
2013-09-20 05:51:00,70.1,42.7,29.66,NE,44,2.0,6.0,37,0.00,,---,0.00,VWS V14.01,2013-09-20 12:51:00,
2013-09-20 05:56:00,70.2,42.7,29.67,NNE,20,2.0,6.0,37,0.00,,---,0.00,VWS V14.01,2013-09-20 12:56:00,
2013-09-20 06:00:00,70.2,42.7,29.66,NE,55,1.0,6.0,37,0.00,,---,0.00,VWS V15.00,2013-09-20 13:00:00,
2013-09-20 06:01:00,70.2,42.7,29.67,NE,39,1.0,3.0,37,0.00,,---,0.00,VWS V14.01,2013-09-20 13:01:00,
2013-09-20 06:06:00,70.1,42.7,29.67,NE,37,2.0,3.0,37,0.00,,---,0.00,VWS V14.01,2013-09-20 13:06:00,
2013-09-20 06:11:00,70.2,42.7,29.67,NNE,18,2.0,4.0,37,0.00,,---,0.00,VWS V14.01,2013-09-20 13:11:00,
2013-09-20 06:16:00,70.5,43.0,29.67,NNE,32,2.0,5.0,37,0.00,,---,0.00,VWS V14.01,2013-09-20 13:16:00,
2013-09-20 06:21:00,70.7,43.2,29.67,North,360,3.0,5.0,37,0.00,,---,0.00,VWS V14.01,2013-09-20 13:21:00,
2013-09-20 06:26:00,71.1,43.5,29.67,NE,44,3.0,5.0,37,0.00,,---,0.00,VWS V14.01,2013-09-20 13:26:00,
2013-09-20 06:30:00,71.2,43.6,29.67,NNE,18,2.0,6.0,37,0.00,,---,0.00,VWS V15.00,2013-09-20 13:30:00,
2013-09-20 06:32:00,71.4,43.1,29.67,North,5,4.0,4.0,36,0.00,,---,0.00,VWS V14.01,2013-09-20 13:32:00,
2013-09-20 06:37:00,71.6,43.3,29.67,NE,39,2.0,6.0,36,0.00,,---,0.00,VWS V14.01,2013-09-20 13:37:00,
2013-09-20 06:42:00,71.7,43.3,29.67,NE,43,3.0,6.0,36,0.00,,---,0.00,VWS V14.01,2013-09-20 13:42:00,
2013-09-20 06:47:00,72.2,43.1,29.67,NNE,25,7.0,7.0,35,0.00,,---,0.00,VWS V14.01,2013-09-20 13:47:00,
2013-09-20 06:52:00,72.9,42.9,29.68,NE,37,4.0,8.0,34,0.00,,---,0.00,VWS V14.01,2013-09-20 13:52:00,
2013-09-20 06:57:00,73.6,42.8,29.68,NNE,30,3.0,8.0,33,0.00,,---,0.00,VWS V14.01,2013-09-20 13:57:00,
2013-09-20 07:00:00,73.9,43.8,29.68,NNE,27,2.0,8.0,34,0.00,,---,0.00,VWS V15.00,2013-09-20 14:00:00,
2013-09-20 07:02:00,74.1,44.0,29.68,NNE,22,3.0,4.0,34,0.00,,---,0.00,VWS V14.01,2013-09-20 14:02:00,
2013-09-20 07:07:00,74.2,44.1,29.68,NNE,33,1.0,5.0,34,0.00,,---,0.00,VWS V14.01,2013-09-20 14:07:00,
2013-09-20 07:12:00,74.8,44.6,29.68,NNE,13,2.0,5.0,34,0.00,,---,0.00,VWS V14.01,2013-09-20 14:12:00,
2013-09-20 07:17:00,75.5,45.2,29.69,NE,37,0.0,5.0,34,0.00,,---,0.00,VWS V14.01,2013-09-20 14:17:00,
2013-09-20 07:22:00,76.1,45.7,29.69,NE,37,0.0,5.0,34,0.00,,---,0.00,VWS V14.01,2013-09-20 14:22:00,
2013-09-20 07:27:00,76.6,46.2,29.69,NE,46,0.0,5.0,34,0.00,,---,0.00,VWS V14.01,2013-09-20 14:27:00,
2013-09-20 07:30:00,76.7,46.2,29.69,NE,50,0.0,5.0,34,0.00,,---,0.00,VWS V15.00,2013-09-20 14:30:00,
2013-09-20 07:32:00,76.7,46.2,29.69,ENE,67,1.0,3.0,34,0.00,,---,0.00,VWS V14.01,2013-09-20 14:32:00,
2013-09-20 07:37:00,76.9,46.4,29.69,ENE,67,0.0,3.0,34,0.00,,---,0.00,VWS V14.01,2013-09-20 14:37:00,
2013-09-20 07:42:00,78.0,46.6,29.69,ENE,66,1.0,3.0,33,0.00,,---,0.00,VWS V14.01,2013-09-20 14:42:00,
2013-09-20 07:47:00,79.2,48.4,29.69,ENE,67,0.0,3.0,34,0.00,,---,0.00,VWS V14.01,2013-09-20 14:47:00,
2013-09-20 07:53:00,80.5,47.1,29.69,ESE,120,1.0,3.0,31,0.00,,---,0.00,VWS V14.01,2013-09-20 14:53:00,
2013-09-20 07:58:00,81.5,48.0,29.69,SE,138,0.0,3.0,31,0.00,,---,0.00,VWS V14.01,2013-09-20 14:58:00,
2013-09-20 08:00:00,82.1,46.7,29.69,SE,136,0.0,3.0,29,0.00,,---,0.00,VWS V15.00,2013-09-20 15:00:00,
2013-09-20 08:03:00,82.9,48.3,29.69,SE,136,0.0,0.0,30,0.00,,---,0.00,VWS V14.01,2013-09-20 15:03:00,
2013-09-20 08:08:00,84.4,47.8,29.69,SE,137,0.0,0.0,28,0.00,,---,0.00,VWS V14.01,2013-09-20 15:08:00,
2013-09-20 08:13:00,85.9,46.0,29.69,SE,137,0.0,0.0,25,0.00,,---,0.00,VWS V14.01,2013-09-20 15:13:00,
2013-09-20 08:18:00,87.2,44.9,29.69,SE,139,0.0,0.0,23,0.00,,---,0.00,VWS V14.01,2013-09-20 15:18:00,
2013-09-20 08:23:00,87.6,45.3,29.69,SSW,208,0.0,1.0,23,0.00,,---,0.00,VWS V14.01,2013-09-20 15:23:00,
2013-09-20 08:28:00,87.7,46.5,29.69,SSW,208,0.0,1.0,24,0.00,,---,0.00,VWS V14.01,2013-09-20 15:28:00,
2013-09-20 08:30:00,88.0,45.6,29.69,SSW,203,0.0,1.0,23,0.00,,---,0.00,VWS V15.00,2013-09-20 15:30:00,
2013-09-20 08:33:00,88.6,44.9,29.69,WSW,256,1.0,1.0,22,0.00,,---,0.00,VWS V14.01,2013-09-20 15:33:00,
2013-09-20 08:38:00,87.7,46.5,29.69,SW,228,4.0,4.0,24,0.00,,---,0.00,VWS V14.01,2013-09-20 15:38:00,
2013-09-20 08:43:00,85.6,46.8,29.69,WSW,248,2.0,5.0,26,0.00,,---,0.00,VWS V14.01,2013-09-20 15:43:00,
2013-09-20 08:48:00,84.7,45.0,29.70,SW,236,2.0,5.0,25,0.00,,---,0.00,VWS V14.01,2013-09-20 15:48:00,
2013-09-20 08:53:00,84.8,44.0,29.70,SW,228,1.0,6.0,24,0.00,,---,0.00,VWS V14.01,2013-09-20 15:53:00,
2013-09-20 08:58:00,84.7,44.0,29.70,SW,218,1.0,6.0,24,0.00,,---,0.00,VWS V14.01,2013-09-20 15:58:00,
2013-09-20 09:00:00,84.7,45.0,29.70,SW,224,4.0,6.0,25,0.00,,---,0.00,VWS V15.00,2013-09-20 16:00:00,
2013-09-20 09:03:00,84.7,44.0,29.70,SSE,167,1.0,6.0,24,0.00,,---,0.00,VWS V14.01,2013-09-20 16:03:00,
2013-09-20 09:09:00,85.5,44.6,29.70,SSE,160,3.0,6.0,24,0.00,,---,0.00,VWS V14.01,2013-09-20 16:09:00,
2013-09-20 09:14:00,85.8,44.9,29.70,WSW,240,4.0,6.0,24,0.00,,---,0.00,VWS V14.01,2013-09-20 16:14:00,
2013-09-20 09:19:00,85.8,44.9,29.70,SSW,198,3.0,7.0,24,0.00,,---,0.00,VWS V14.01,2013-09-20 16:19:00,
2013-09-20 09:24:00,86.1,45.1,29.70,SSE,157,1.0,7.0,24,0.00,,---,0.00,VWS V14.01,2013-09-20 16:24:00,
2013-09-20 09:29:00,86.7,44.5,29.71,WSW,239,3.0,7.0,23,0.00,,---,0.00,VWS V14.01,2013-09-20 16:29:00,
2013-09-20 09:30:00,86.6,44.4,29.71,WSW,248,5.0,7.0,23,0.00,,---,0.00,VWS V15.00,2013-09-20 16:30:00,
2013-09-20 09:34:00,86.5,45.5,29.71,SW,230,3.0,6.0,24,0.00,,---,0.00,VWS V14.01,2013-09-20 16:34:00,
2013-09-20 09:39:00,87.3,46.1,29.71,WSW,248,3.0,6.0,24,0.00,,---,0.00,VWS V14.01,2013-09-20 16:39:00,
2013-09-20 09:44:00,87.5,46.3,29.71,SW,222,4.0,6.0,24,0.00,,---,0.00,VWS V14.01,2013-09-20 16:44:00,
2013-09-20 09:49:00,87.7,47.5,29.71,West,264,4.0,6.0,25,0.00,,---,0.00,VWS V14.01,2013-09-20 16:49:00,
2013-09-20 09:54:00,88.3,48.1,29.71,SSE,166,5.0,9.0,25,0.00,,---,0.00,VWS V14.01,2013-09-20 16:54:00,
2013-09-20 09:59:00,87.7,47.5,29.71,South,179,3.0,9.0,25,0.00,,---,0.00,VWS V14.01,2013-09-20 16:59:00,
2013-09-20 10:00:00,87.7,47.5,29.71,WSW,253,2.0,9.0,25,0.00,,---,0.00,VWS V15.00,2013-09-20 17:00:00,
2013-09-20 10:04:00,87.9,47.7,29.71,SSE,150,4.0,9.0,25,0.00,,---,0.00,VWS V14.01,2013-09-20 17:04:00,
2013-09-20 10:09:00,88.1,47.9,29.71,SE,139,3.0,9.0,25,0.00,,---,0.00,VWS V14.01,2013-09-20 17:09:00,
2013-09-20 10:15:00,88.6,47.2,29.71,SSW,200,2.0,9.0,24,0.00,,---,0.00,VWS V14.01,2013-09-20 17:15:00,
2013-09-20 10:20:00,88.9,47.5,29.71,SSW,203,4.0,9.0,24,0.00,,---,0.00,VWS V14.01,2013-09-20 17:20:00,
2013-09-20 10:25:00,88.9,47.5,29.70,WSW,245,2.0,9.0,24,0.00,,---,0.00,VWS V14.01,2013-09-20 17:25:00,
2013-09-20 10:30:00,89.1,47.6,29.70,SW,219,1.0,9.0,24,0.00,,---,0.00,VWS V14.01,2013-09-20 17:30:00,
2013-09-20 10:35:00,89.2,48.8,29.70,WSW,243,2.0,8.0,25,0.00,,---,0.00,VWS V14.01,2013-09-20 17:35:00,
2013-09-20 10:40:00,89.9,47.2,29.70,WSW,255,3.0,8.0,23,0.00,,---,0.00,VWS V14.01,2013-09-20 17:40:00,
2013-09-20 10:45:00,90.4,47.6,29.70,West,263,0.0,8.0,23,0.00,,---,0.00,VWS V14.01,2013-09-20 17:45:00,
2013-09-20 10:50:00,90.8,47.9,29.70,SSW,204,1.0,8.0,23,0.00,,---,0.00,VWS V14.01,2013-09-20 17:50:00,
2013-09-20 10:55:00,90.8,47.9,29.69,SW,232,1.0,8.0,23,0.00,,---,0.00,VWS V14.01,2013-09-20 17:55:00,
2013-09-20 11:00:00,91.4,48.4,29.69,West,262,1.0,4.0,23,0.00,,---,0.00,VWS V14.01,2013-09-20 18:00:00,
2013-09-20 11:05:00,91.7,48.7,29.69,SW,232,3.0,6.0,23,0.00,,---,0.00,VWS V14.01,2013-09-20 18:05:00,
2013-09-20 11:10:00,92.0,47.8,29.69,SW,236,0.0,6.0,22,0.00,,---,0.00,VWS V14.01,2013-09-20 18:10:00,
2013-09-20 11:15:00,92.8,47.2,29.69,South,190,2.0,6.0,21,0.00,,---,0.00,VWS V14.01,2013-09-20 18:15:00,
2013-09-20 11:20:00,93.4,47.7,29.69,SSW,193,2.0,6.0,21,0.00,,---,0.00,VWS V14.01,2013-09-20 18:20:00,
2013-09-20 11:26:00,94.4,49.7,29.69,North,358,2.0,6.0,22,0.00,,---,0.00,VWS V14.01,2013-09-20 18:26:00,
2013-09-20 11:30:00,94.3,49.7,29.68,West,269,0.0,6.0,22,0.00,,---,0.00,VWS V15.00,2013-09-20 18:30:00,
2013-09-20 11:31:00,94.3,49.7,29.68,North,9,1.0,2.0,22,0.00,,---,0.00,VWS V14.01,2013-09-20 18:31:00,
2013-09-20 11:36:00,95.0,50.2,29.68,North,360,2.0,4.0,22,0.00,,---,0.00,VWS V14.01,2013-09-20 18:36:00,
2013-09-20 11:41:00,95.6,51.9,29.68,WSW,245,2.0,4.0,23,0.00,,---,0.00,VWS V14.01,2013-09-20 18:41:00,
2013-09-20 11:46:00,95.9,53.3,29.67,SSW,197,6.0,9.0,24,0.00,,---,0.00,VWS V14.01,2013-09-20 18:46:00,
2013-09-20 11:51:00,95.7,53.2,29.67,SSE,152,4.0,11.0,24,0.00,,---,0.00,VWS V14.01,2013-09-20 18:51:00,
2013-09-20 11:56:00,95.4,54.0,29.67,SSW,200,6.0,11.0,25,0.00,,---,0.00,VWS V14.01,2013-09-20 18:56:00,
2013-09-20 12:00:00,95.0,53.7,29.67,SW,236,5.0,11.0,25,0.00,,---,0.00,VWS V15.00,2013-09-20 19:00:00,
2013-09-20 12:01:00,95.2,53.9,29.67,SW,226,6.0,8.0,25,0.00,,---,0.00,VWS V14.01,2013-09-20 19:01:00,
2013-09-20 12:06:00,95.1,52.7,29.67,SW,226,3.0,8.0,24,0.00,,---,0.00,VWS V14.01,2013-09-20 19:06:00,
2013-09-20 12:11:00,95.1,53.8,29.66,SE,144,9.0,11.0,25,0.00,,---,0.00,VWS V14.01,2013-09-20 19:11:00,
2013-09-20 12:16:00,95.3,54.0,29.66,South,188,2.0,12.0,25,0.00,,---,0.00,VWS V14.01,2013-09-20 19:16:00,
2013-09-20 12:21:00,95.7,53.2,29.66,SSW,207,4.0,12.0,24,0.00,,---,0.00,VWS V14.01,2013-09-20 19:21:00,
2013-09-20 12:27:00,95.3,52.8,29.66,SSW,210,5.0,12.0,24,0.00,,---,0.00,VWS V14.01,2013-09-20 19:27:00,
2013-09-20 12:30:00,95.5,53.0,29.66,SSE,152,1.0,12.0,24,0.00,,---,0.00,VWS V15.00,2013-09-20 19:30:00,
2013-09-20 12:32:00,95.8,53.2,29.66,SE,125,3.0,6.0,24,0.00,,---,0.00,VWS V14.01,2013-09-20 19:32:00,
2013-09-20 12:37:00,95.8,53.2,29.65,SW,217,3.0,8.0,24,0.00,,---,0.00,VWS V14.01,2013-09-20 19:37:00,
2013-09-20 12:42:00,96.3,52.5,29.65,SW,233,4.0,10.0,23,0.00,,---,0.00,VWS V14.01,2013-09-20 19:42:00,
2013-09-20 12:47:00,96.0,53.4,29.65,West,270,6.0,10.0,24,0.00,,---,0.00,VWS V14.01,2013-09-20 19:47:00,
2013-09-20 12:52:00,96.2,52.4,29.65,WSW,248,5.0,10.0,23,0.00,,---,0.00,VWS V14.01,2013-09-20 19:52:00,
2013-09-20 12:57:00,96.5,53.8,29.65,WSW,239,7.0,10.0,24,0.00,,---,0.00,VWS V14.01,2013-09-20 19:57:00,
2013-09-20 13:00:00,96.6,53.9,29.64,WSW,250,5.0,10.0,24,0.00,,---,0.00,VWS V15.00,2013-09-20 20:00:00,
2013-09-20 13:02:00,96.7,52.8,29.64,SW,228,1.0,6.0,23,0.00,,---,0.00,VWS V14.01,2013-09-20 20:02:00,
2013-09-20 13:07:00,96.9,53.0,29.64,WSW,240,7.0,9.0,23,0.00,,---,0.00,VWS V14.01,2013-09-20 20:07:00,
2013-09-20 13:12:00,96.7,52.8,29.64,WSW,238,6.0,11.0,23,0.00,,---,0.00,VWS V14.01,2013-09-20 20:12:00,
2013-09-20 13:17:00,96.9,51.8,29.64,WSW,254,2.0,11.0,22,0.00,,---,0.00,VWS V14.01,2013-09-20 20:17:00,
2013-09-20 13:22:00,97.7,52.5,29.64,WSW,254,6.0,11.0,22,0.00,,---,0.00,VWS V14.01,2013-09-20 20:22:00,
2013-09-20 13:27:00,97.2,53.3,29.64,WSW,250,7.0,11.0,23,0.00,,---,0.00,VWS V14.01,2013-09-20 20:27:00,
2013-09-20 13:30:00,97.2,53.3,29.64,WSW,248,4.0,11.0,23,0.00,,---,0.00,VWS V15.00,2013-09-20 20:30:00,
2013-09-20 13:33:00,97.3,52.1,29.64,SSE,157,2.0,9.0,22,0.00,,---,0.00,VWS V14.01,2013-09-20 20:33:00,
2013-09-20 13:38:00,97.6,51.1,29.63,South,188,4.0,9.0,21,0.00,,---,0.00,VWS V14.01,2013-09-20 20:38:00,
2013-09-20 13:43:00,97.7,49.9,29.63,WSW,254,0.0,9.0,20,0.00,,---,0.00,VWS V14.01,2013-09-20 20:43:00,
2013-09-20 13:48:00,97.9,50.1,29.62,South,176,1.0,9.0,20,0.00,,---,0.00,VWS V14.01,2013-09-20 20:48:00,
2013-09-20 13:53:00,98.6,49.2,29.62,SSW,195,4.0,9.0,19,0.00,,---,0.00,VWS V14.01,2013-09-20 20:53:00,
2013-09-20 13:58:00,99.0,49.6,29.62,SSW,195,2.0,9.0,19,0.00,,---,0.00,VWS V14.01,2013-09-20 20:58:00,
2013-09-20 14:00:00,99.1,48.2,29.62,WSW,238,4.0,9.0,18,0.00,,---,0.00,VWS V15.00,2013-09-20 21:00:00,
2013-09-20 14:03:00,99.0,48.1,29.62,West,263,0.0,4.0,18,0.00,,---,0.00,VWS V14.01,2013-09-20 21:03:00,
2013-09-20 14:08:00,100.0,48.9,29.62,SW,235,5.0,5.0,18,0.00,,---,0.00,VWS V14.01,2013-09-20 21:08:00,
2013-09-20 14:13:00,99.3,46.8,29.62,WSW,239,2.0,8.0,17,0.00,,---,0.00,VWS V14.01,2013-09-20 21:13:00,
2013-09-20 14:18:00,99.1,48.2,29.62,SSW,195,1.0,8.0,18,0.00,,---,0.00,VWS V14.01,2013-09-20 21:18:00,
2013-09-20 14:23:00,99.7,50.1,29.62,West,276,3.0,8.0,19,0.00,,---,0.00,VWS V14.01,2013-09-20 21:23:00,
2013-09-20 14:28:00,100.0,50.4,29.62,NE,43,2.0,8.0,19,0.00,,---,0.00,VWS V14.01,2013-09-20 21:28:00,
2013-09-20 14:30:00,100.2,50.5,29.62,West,259,2.0,8.0,19,0.00,,---,0.00,VWS V15.00,2013-09-20 21:30:00,
2013-09-20 14:34:00,100.3,49.2,29.62,WSW,250,1.0,6.0,18,0.00,,---,0.00,VWS V14.01,2013-09-20 21:34:00,
2013-09-20 14:39:00,99.1,51.0,29.62,WSW,256,3.0,12.0,20,0.00,,---,0.00,VWS V14.01,2013-09-20 21:39:00,
2013-09-20 14:44:00,99.1,51.0,29.62,West,264,4.0,12.0,20,0.00,,---,0.00,VWS V14.01,2013-09-20 21:44:00,
2013-09-20 14:49:00,99.2,49.7,29.62,SW,215,2.0,12.0,19,0.00,,---,0.00,VWS V14.01,2013-09-20 21:49:00,
2013-09-20 14:54:00,99.0,48.1,29.62,WSW,255,7.0,12.0,18,0.00,,---,0.00,VWS V14.01,2013-09-20 21:54:00,
2013-09-20 14:59:00,99.2,48.3,29.61,South,173,4.0,12.0,18,0.00,,---,0.00,VWS V14.01,2013-09-20 21:59:00,
2013-09-20 15:00:00,99.2,46.8,29.61,SW,219,2.0,12.0,17,0.00,,---,0.00,VWS V15.00,2013-09-20 22:00:00,
2013-09-20 15:04:00,99.6,48.6,29.61,SSW,195,1.0,4.0,18,0.00,,---,0.00,VWS V14.01,2013-09-20 22:04:00,
2013-09-20 15:09:00,99.6,48.6,29.61,West,269,3.0,8.0,18,0.00,,---,0.00,VWS V14.01,2013-09-20 22:09:00,
2013-09-20 15:14:00,99.2,48.3,29.60,SW,226,5.0,12.0,18,0.00,,---,0.00,VWS V14.01,2013-09-20 22:14:00,
2013-09-20 15:19:00,99.1,48.2,29.60,NW,322,3.0,12.0,18,0.00,,---,0.00,VWS V14.01,2013-09-20 22:19:00,
2013-09-20 15:24:00,99.1,46.7,29.60,SW,217,5.0,14.0,17,0.00,,---,0.00,VWS V14.01,2013-09-20 22:24:00,
2013-09-20 15:29:00,98.6,46.3,29.60,ESE,121,1.0,14.0,17,0.00,,---,0.00,VWS V14.01,2013-09-20 22:29:00,
2013-09-20 15:30:00,98.6,47.8,29.60,South,181,1.0,14.0,18,0.00,,---,0.00,VWS V15.00,2013-09-20 22:30:00,
2013-09-20 15:35:00,98.7,47.9,29.60,WSW,239,5.0,7.0,18,0.00,,---,0.00,VWS V14.01,2013-09-20 22:35:00,
2013-09-20 15:40:00,98.2,47.5,29.60,WSW,246,7.0,10.0,18,0.00,,---,0.00,VWS V14.01,2013-09-20 22:40:00,
2013-09-20 15:45:00,97.8,47.2,29.60,SSW,210,5.0,11.0,18,0.00,,---,0.00,VWS V14.01,2013-09-20 22:45:00,
2013-09-20 15:50:00,98.0,47.3,29.60,WSW,253,1.0,11.0,18,0.00,,---,0.00,VWS V14.01,2013-09-20 22:50:00,
2013-09-20 15:55:00,98.8,46.5,29.60,NNW,333,1.0,11.0,17,0.00,,---,0.00,VWS V14.01,2013-09-20 22:55:00,
2013-09-20 16:00:00,99.0,48.1,29.60,SW,231,2.0,4.0,18,0.00,,---,0.00,VWS V14.01,2013-09-20 23:00:00,
2013-09-20 16:05:00,98.8,46.5,29.60,SSW,210,5.0,9.0,17,0.00,,---,0.00,VWS V14.01,2013-09-20 23:05:00,
2013-09-20 16:10:00,98.5,47.7,29.60,SW,222,5.0,11.0,18,0.00,,---,0.00,VWS V14.01,2013-09-20 23:10:00,
2013-09-20 16:15:00,98.4,47.6,29.60,SW,235,7.0,11.0,18,0.00,,---,0.00,VWS V14.01,2013-09-20 23:15:00,
2013-09-20 16:20:00,98.2,46.0,29.60,WSW,256,2.0,11.0,17,0.00,,---,0.00,VWS V14.01,2013-09-20 23:20:00,
2013-09-20 16:25:00,98.3,46.0,29.60,West,262,9.0,15.0,17,0.00,,---,0.00,VWS V14.01,2013-09-20 23:25:00,
2013-09-20 16:30:00,98.2,46.0,29.60,NW,312,4.0,15.0,17,0.00,,---,0.00,VWS V15.00,2013-09-20 23:30:00,
2013-09-20 16:31:00,98.2,46.0,29.60,WSW,243,6.0,8.0,17,0.00,,---,0.00,VWS V14.01,2013-09-20 23:31:00,
2013-09-20 16:36:00,97.9,44.1,29.60,WSW,256,11.0,13.0,16,0.00,,---,0.00,VWS V14.01,2013-09-20 23:36:00,
2013-09-20 16:41:00,97.5,43.8,29.60,West,269,6.0,13.0,16,0.00,,---,0.00,VWS V14.01,2013-09-20 23:41:00,
2013-09-20 16:46:00,97.3,45.2,29.60,WSW,243,7.0,13.0,17,0.00,,---,0.00,VWS V14.01,2013-09-20 23:46:00,
2013-09-20 16:51:00,97.1,45.1,29.60,WSW,242,7.0,13.0,17,0.00,,---,0.00,VWS V14.01,2013-09-20 23:51:00,
2013-09-20 16:56:00,96.8,43.3,29.60,SW,236,7.0,13.0,16,0.00,,---,0.00,VWS V14.01,2013-09-20 23:56:00,
2013-09-20 17:00:00,96.6,43.1,29.60,WSW,237,8.0,14.0,16,0.00,,---,0.00,VWS V15.00,2013-09-21 00:00:00,
2013-09-20 17:01:00,96.5,43.0,29.60,WSW,255,5.0,9.0,16,0.00,,---,0.00,VWS V14.01,2013-09-21 00:01:00,
2013-09-20 17:06:00,96.1,42.7,29.60,WSW,250,3.0,12.0,16,0.00,,---,0.00,VWS V14.01,2013-09-21 00:06:00,
2013-09-20 17:11:00,96.3,44.4,29.60,West,274,9.0,12.0,17,0.00,,---,0.00,VWS V14.01,2013-09-21 00:11:00,
2013-09-20 17:16:00,96.4,42.9,29.60,WNW,287,3.0,12.0,16,0.00,,---,0.00,VWS V14.01,2013-09-21 00:16:00,
2013-09-20 17:21:00,96.2,44.4,29.60,WSW,256,5.0,12.0,17,0.00,,---,0.00,VWS V14.01,2013-09-21 00:21:00,
2013-09-20 17:26:00,96.0,42.6,29.60,WNW,284,4.0,12.0,16,0.00,,---,0.00,VWS V14.01,2013-09-21 00:26:00,
2013-09-20 17:30:00,95.8,44.0,29.60,WNW,284,7.0,12.0,17,0.00,,---,0.00,VWS V15.00,2013-09-21 00:30:00,
2013-09-20 17:31:00,95.7,44.0,29.60,West,274,5.0,9.0,17,0.00,,---,0.00,VWS V14.01,2013-09-21 00:31:00,
2013-09-20 17:36:00,95.9,44.1,29.61,West,278,3.0,9.0,17,0.00,,---,0.00,VWS V14.01,2013-09-21 00:36:00,
2013-09-20 17:42:00,95.9,44.1,29.61,West,264,6.0,9.0,17,0.00,,---,0.00,VWS V14.01,2013-09-21 00:42:00,
2013-09-20 17:47:00,95.2,43.6,29.61,WSW,248,2.0,9.0,17,0.00,,---,0.00,VWS V14.01,2013-09-21 00:47:00,
2013-09-20 17:52:00,94.7,43.2,29.61,West,260,2.0,9.0,17,0.00,,---,0.00,VWS V14.01,2013-09-21 00:52:00,
2013-09-20 17:57:00,94.5,44.5,29.61,WSW,243,2.0,10.0,18,0.00,,---,0.00,VWS V14.01,2013-09-21 00:57:00,
2013-09-20 18:00:00,94.2,44.2,29.61,WSW,250,2.0,10.0,18,0.00,,---,0.00,VWS V15.00,2013-09-21 01:00:00,
2013-09-20 18:02:00,94.1,44.2,29.61,West,277,5.0,6.0,18,0.00,,---,0.00,VWS V14.01,2013-09-21 01:02:00,
2013-09-20 18:07:00,93.7,43.8,29.61,WSW,238,3.0,9.0,18,0.00,,---,0.00,VWS V14.01,2013-09-21 01:07:00,
2013-09-20 18:12:00,93.4,45.0,29.61,West,262,1.0,9.0,19,0.00,,---,0.00,VWS V14.01,2013-09-21 01:12:00,
2013-09-20 18:17:00,93.0,44.7,29.62,West,281,3.0,9.0,19,0.00,,---,0.00,VWS V14.01,2013-09-21 01:17:00,
2013-09-20 18:22:00,92.7,44.5,29.62,WSW,250,2.0,9.0,19,0.00,,---,0.00,VWS V14.01,2013-09-21 01:22:00,
2013-09-20 18:27:00,92.5,44.3,29.62,West,273,2.0,9.0,19,0.00,,---,0.00,VWS V14.01,2013-09-21 01:27:00,
2013-09-20 18:30:00,92.4,44.2,29.62,West,273,3.0,9.0,19,0.00,,---,0.00,VWS V15.00,2013-09-21 01:30:00,
2013-09-20 18:32:00,92.3,44.1,29.62,West,264,5.0,8.0,19,0.00,,---,0.00,VWS V14.01,2013-09-21 01:32:00,
2013-09-20 18:37:00,92.0,45.2,29.62,WSW,247,1.0,8.0,20,0.00,,---,0.00,VWS V14.01,2013-09-21 01:37:00,
2013-09-20 18:42:00,91.8,45.1,29.62,SW,233,3.0,8.0,20,0.00,,---,0.00,VWS V14.01,2013-09-21 01:42:00,
2013-09-20 18:48:00,91.5,44.8,29.63,WSW,238,3.0,8.0,20,0.00,,---,0.00,VWS V14.01,2013-09-21 01:48:00,
2013-09-20 18:53:00,91.2,45.8,29.62,SW,233,2.0,8.0,21,0.00,,---,0.00,VWS V14.01,2013-09-21 01:53:00,
2013-09-20 18:58:00,91.0,45.7,29.63,SW,219,3.0,8.0,21,0.00,,---,0.00,VWS V14.01,2013-09-21 01:58:00,
2013-09-20 19:00:00,90.9,45.6,29.63,WSW,240,2.0,8.0,21,0.00,,---,0.00,VWS V15.00,2013-09-21 02:00:00,
2013-09-20 19:03:00,90.9,45.6,29.63,West,270,3.0,5.0,21,0.00,,---,0.00,VWS V14.01,2013-09-21 02:03:00,
2013-09-20 19:08:00,90.8,49.1,29.64,SSE,153,3.0,7.0,24,0.00,,---,0.00,VWS V14.01,2013-09-21 02:08:00,
2013-09-20 19:13:00,90.2,52.7,29.64,SW,229,7.0,10.0,28,0.00,,---,0.00,VWS V14.01,2013-09-21 02:13:00,
2013-09-20 19:18:00,89.7,53.2,29.64,South,176,3.0,10.0,29,0.00,,---,0.00,VWS V14.01,2013-09-21 02:18:00,
2013-09-20 19:23:00,89.2,52.8,29.65,SW,226,5.0,11.0,29,0.00,,---,0.00,VWS V14.01,2013-09-21 02:23:00,
2013-09-20 19:28:00,88.4,53.1,29.65,SSW,208,6.0,11.0,30,0.00,,---,0.00,VWS V14.01,2013-09-21 02:28:00,
2013-09-20 19:30:00,88.3,53.0,29.65,SSE,159,3.0,11.0,30,0.00,,---,0.00,VWS V15.00,2013-09-21 02:30:00,
2013-09-20 19:33:00,87.9,53.5,29.65,SW,219,3.0,9.0,31,0.00,,---,0.00,VWS V14.01,2013-09-21 02:33:00,
2013-09-20 19:39:00,87.2,53.8,29.66,SSW,211,3.0,9.0,32,0.00,,---,0.00,VWS V14.01,2013-09-21 02:39:00,
2013-09-20 19:44:00,86.7,54.2,29.66,WSW,240,4.0,10.0,33,0.00,,---,0.00,VWS V14.01,2013-09-21 02:44:00,
2013-09-20 19:49:00,86.4,53.9,29.66,SSW,212,3.0,10.0,33,0.00,,---,0.00,VWS V14.01,2013-09-21 02:49:00,
2013-09-20 19:54:00,86.2,53.8,29.66,SW,225,1.0,10.0,33,0.00,,---,0.00,VWS V14.01,2013-09-21 02:54:00,
2013-09-20 19:59:00,85.9,53.5,29.66,SSE,153,2.0,10.0,33,0.00,,---,0.00,VWS V14.01,2013-09-21 02:59:00,
2013-09-20 20:00:00,85.9,53.5,29.66,SW,215,3.0,10.0,33,0.00,,---,0.00,VWS V15.00,2013-09-21 03:00:00,
2013-09-20 20:04:00,85.7,53.3,29.67,SW,225,1.0,4.0,33,0.00,,---,0.00,VWS V14.01,2013-09-21 03:04:00,
2013-09-20 20:09:00,85.4,53.0,29.67,SW,215,3.0,5.0,33,0.00,,---,0.00,VWS V14.01,2013-09-21 03:09:00,
2013-09-20 20:14:00,85.3,53.0,29.67,SW,226,1.0,5.0,33,0.00,,---,0.00,VWS V14.01,2013-09-21 03:14:00,
2013-09-20 20:19:00,85.2,52.9,29.67,SW,224,0.0,5.0,33,0.00,,---,0.00,VWS V14.01,2013-09-21 03:19:00,
2013-09-20 20:24:00,85.1,52.8,29.67,South,189,0.0,5.0,33,0.00,,---,0.00,VWS V14.01,2013-09-21 03:24:00,
2013-09-20 20:29:00,84.8,52.5,29.67,South,179,1.0,5.0,33,0.00,,---,0.00,VWS V14.01,2013-09-21 03:29:00,
2013-09-20 20:30:00,84.7,52.4,29.67,South,180,0.0,5.0,33,0.00,,---,0.00,VWS V15.00,2013-09-21 03:30:00,
2013-09-20 20:34:00,84.6,52.4,29.67,SSW,202,1.0,2.0,33,0.00,,---,0.00,VWS V14.01,2013-09-21 03:34:00,
2013-09-20 20:40:00,84.6,52.4,29.67,SSW,203,1.0,3.0,33,0.00,,---,0.00,VWS V14.01,2013-09-21 03:40:00,
2013-09-20 20:45:00,84.5,52.3,29.67,South,184,1.0,4.0,33,0.00,,---,0.00,VWS V14.01,2013-09-21 03:45:00,
2013-09-20 20:50:00,84.4,52.2,29.67,SW,229,6.0,6.0,33,0.00,,---,0.00,VWS V14.01,2013-09-21 03:50:00,
2013-09-20 20:55:00,84.4,52.2,29.68,South,179,3.0,6.0,33,0.00,,---,0.00,VWS V14.01,2013-09-21 03:55:00,
2013-09-20 21:00:00,84.4,52.2,29.68,SSE,149,3.0,8.0,33,0.00,,---,0.00,VWS V14.01,2013-09-21 04:00:00,
2013-09-20 21:01:00,84.4,52.2,29.68,South,184,2.0,5.0,33,0.00,,---,0.00,VWS V14.01,2013-09-21 04:01:00,
2013-09-20 21:02:00,84.4,52.2,29.68,South,180,3.0,5.0,33,0.00,,---,0.00,VWS V14.01,2013-09-21 04:02:00,
2013-09-20 21:03:00,84.3,52.1,29.68,South,186,4.0,5.0,33,0.00,,---,0.00,VWS V14.01,2013-09-21 04:03:00,
2013-09-20 21:08:00,84.2,52.0,29.68,SSE,160,3.0,8.0,33,0.00,,---,0.00,VWS V14.01,2013-09-21 04:08:00,
2013-09-20 21:13:00,84.1,51.9,29.68,South,176,3.0,8.0,33,0.00,,---,0.00,VWS V14.01,2013-09-21 04:13:00,
2013-09-20 21:18:00,84.2,52.0,29.68,SE,134,3.0,8.0,33,0.00,,---,0.00,VWS V14.01,2013-09-21 04:18:00,
2013-09-20 21:23:00,84.4,52.2,29.68,South,188,1.0,8.0,33,0.00,,---,0.00,VWS V14.01,2013-09-21 04:23:00,
2013-09-20 21:28:00,84.5,52.3,29.69,ESE,114,0.0,8.0,33,0.00,,---,0.00,VWS V14.01,2013-09-21 04:28:00,
2013-09-20 21:30:00,84.5,52.3,29.69,SSE,159,0.0,8.0,33,0.00,,---,0.00,VWS V15.00,2013-09-21 04:30:00,
2013-09-20 21:33:00,84.5,52.3,29.69,SSE,158,2.0,4.0,33,0.00,,---,0.00,VWS V14.01,2013-09-21 04:33:00,
2013-09-20 21:38:00,84.6,52.4,29.69,SSE,148,1.0,6.0,33,0.00,,---,0.00,VWS V14.01,2013-09-21 04:38:00,
2013-09-20 21:43:00,84.5,52.3,29.69,SSE,159,0.0,6.0,33,0.00,,---,0.00,VWS V14.01,2013-09-21 04:43:00,
2013-09-20 21:49:00,84.3,52.9,29.69,SSW,201,3.0,6.0,34,0.00,,---,0.00,VWS V14.01,2013-09-21 04:49:00,
2013-09-20 21:54:00,84.2,52.8,29.69,SSE,162,2.0,7.0,34,0.00,,---,0.00,VWS V14.01,2013-09-21 04:54:00,
2013-09-20 21:59:00,84.2,53.6,29.69,South,170,1.0,7.0,35,0.00,,---,0.00,VWS V14.01,2013-09-21 04:59:00,
2013-09-20 22:00:00,84.1,53.5,29.69,SE,141,3.0,7.0,35,0.00,,---,0.00,VWS V15.00,2013-09-21 05:00:00,
2013-09-20 22:04:00,84.1,53.5,29.69,ESE,120,4.0,8.0,35,0.00,,---,0.00,VWS V14.01,2013-09-21 05:04:00,
2013-09-20 22:09:00,84.1,53.5,29.69,SSE,149,1.0,8.0,35,0.00,,---,0.00,VWS V14.01,2013-09-21 05:09:00,
2013-09-20 22:14:00,84.0,54.2,29.69,SE,146,1.0,9.0,36,0.00,,---,0.00,VWS V14.01,2013-09-21 05:14:00,
2013-09-20 22:19:00,83.9,54.1,29.69,SSW,203,0.0,9.0,36,0.00,,---,0.00,VWS V14.01,2013-09-21 05:19:00,
2013-09-20 22:24:00,83.8,54.0,29.69,SSE,158,4.0,9.0,36,0.00,,---,0.00,VWS V14.01,2013-09-21 05:24:00,
2013-09-20 22:29:00,83.8,54.0,29.69,South,183,1.0,9.0,36,0.00,,---,0.00,VWS V14.01,2013-09-21 05:29:00,
2013-09-20 22:30:00,83.8,54.0,29.69,SSW,208,1.0,9.0,36,0.00,,---,0.00,VWS V15.00,2013-09-21 05:30:00,
2013-09-20 22:34:00,83.6,53.8,29.69,SE,134,0.0,5.0,36,0.00,,---,0.00,VWS V14.01,2013-09-21 05:34:00,
2013-09-20 22:39:00,83.4,53.7,29.69,SE,134,0.0,5.0,36,0.00,,---,0.00,VWS V14.01,2013-09-21 05:39:00,
2013-09-20 22:44:00,83.0,54.1,29.70,SE,127,2.0,5.0,37,0.00,,---,0.00,VWS V14.01,2013-09-21 05:44:00,
2013-09-20 22:49:00,83.0,53.3,29.70,SE,139,0.0,5.0,36,0.00,,---,0.00,VWS V14.01,2013-09-21 05:49:00,
2013-09-20 22:55:00,83.0,53.3,29.70,SSE,167,0.0,5.0,36,0.00,,---,0.00,VWS V14.01,2013-09-21 05:55:00,
2013-09-20 23:00:00,82.8,53.9,29.70,WSW,239,2.0,5.0,37,0.00,,---,0.00,VWS V14.01,2013-09-21 06:00:00,
2013-09-20 23:05:00,82.1,54.0,29.70,WSW,241,2.0,4.0,38,0.00,,---,0.00,VWS V14.01,2013-09-21 06:05:00,
2013-09-20 23:10:00,81.6,54.3,29.70,WSW,249,2.0,4.0,39,0.00,,---,0.00,VWS V14.01,2013-09-21 06:10:00,
2013-09-20 23:15:00,81.0,54.4,29.70,WSW,256,4.0,9.0,40,0.00,,---,0.00,VWS V14.01,2013-09-21 06:15:00,
2013-09-20 23:20:00,80.8,54.9,29.70,SSW,212,5.0,9.0,41,0.00,,---,0.00,VWS V14.01,2013-09-21 06:20:00,
2013-09-20 23:25:00,80.5,54.7,29.70,ESE,113,5.0,9.0,41,0.00,,---,0.00,VWS V14.01,2013-09-21 06:25:00,
2013-09-20 23:30:00,80.5,54.7,29.70,SSW,212,4.0,9.0,41,0.00,,---,0.00,VWS V14.01,2013-09-21 06:30:00,
2013-09-20 23:35:00,80.2,55.0,29.70,WSW,240,2.0,9.0,42,0.00,,---,0.00,VWS V14.01,2013-09-21 06:35:00,
2013-09-20 23:40:00,79.8,55.3,29.70,SW,220,6.0,10.0,43,0.00,,---,0.00,VWS V14.01,2013-09-21 06:40:00,
2013-09-20 23:45:00,79.6,55.2,29.70,SSW,200,5.0,10.0,43,0.00,,---,0.00,VWS V14.01,2013-09-21 06:45:00,
2013-09-20 23:50:00,79.5,55.7,29.70,South,190,3.0,10.0,44,0.00,,---,0.00,VWS V14.01,2013-09-21 06:50:00,
2013-09-20 23:55:00,79.2,55.4,29.70,SW,232,5.0,10.0,44,0.00,,---,0.00,VWS V14.01,2013-09-21 06:55:00,